Chesapeake, VA

9:25 PM EST on February 07, 2016 (GMT -0500)
Chesapeake Regional

Weather History for KCPK - January, 2014

Change the Weather History Date:

Monday, January 20, 2014

  Actual Average (KORF) Record (KORF)
Temperature  
Mean Temperature 48 °F 40 °F  
Max Temperature 64 °F 48 °F 74 °F (1951)
Min Temperature 33 °F 33 °F 3 °F (1985)
Degree Days  
Heating Degree Days 16 25  
Month to date heating degree days 495  
Since 1 July heating degree days 1674  
Cooling Degree Days 0 0  
Month to date cooling degree days 0  
Year to date cooling degree days 0  
Moisture  
Dew Point 29 °F    
Average Humidity 52    
Maximum Humidity 81    
Minimum Humidity 26    
Precipitation  
Precipitation 0.00 in 0.11 in 1.30 in (1883)
Month to date precipitation 2.20  
Year to date precipitation 2.20  
Snow  
Snow 0.00 in 0.00 in 3.30 in (1918)
Month to date snowfall 1.6  
Since 1 July snowfall 2.8  
Snow Depth -    
Sea Level Pressure  
Sea Level Pressure 29.82 in    
Wind  
Wind Speed 8 mph (SSW)    
Max Wind Speed 16 mph    
Max Gust Speed 23 mph    
Visibility 10 miles    
Events      
T = Trace of Precipitation, MM = Missing Value Source: NWS Daily Summary

Daily Weather History Graph

Daily Weather History Graph

Search for Another Location

Airport or City:

Trip Planner

Search our weather history database for the weather conditions in past years. The results will help you decide how hot, cold, wet, or windy it might be!

Date:

Astronomy

Jan. 20, 2014 Rise Set
Actual Time 7:14 AM EST 5:18 PM EST
Civil Twilight 6:46 AM EST 5:46 PM EST
Nautical Twilight 6:15 AM EST 6:17 PM EST
Astronomical Twilight 5:44 AM EST 6:48 PM EST
Moon 9:42 PM EST (1/20) 9:21 AM EST (1/20)
Length of Visible Light 10h 59m
Length of Day
10h 03m
Waning Gibbous, 83% of the Moon is Illuminated
Jan 20
Waning Gibbous
Jan 24
Last Quarter
Jan 30
New
Feb 6
First Quarter
Feb 14
Full

Hourly Weather History & Observations

Time (EST) Temp. Windchill Dew Point Humidity Pressure Visibility Wind Dir Wind Speed Gust Speed Precip Events Conditions
12:15 AM 39.2 °F 33.0 °F 28.4 °F 65% 29.89 in 10.0 mi SW 9.2 mph - N/A   Clear
12:35 AM 39.2 °F 34.2 °F 28.4 °F 65% 29.89 in 10.0 mi SW 6.9 mph - N/A   Clear
12:55 AM 39.2 °F 35.0 °F 28.4 °F 65% 29.88 in 10.0 mi SW 5.8 mph - N/A   Clear
1:15 AM 37.4 °F 33.8 °F 28.4 °F 70% 29.88 in 10.0 mi SW 4.6 mph - N/A   Clear
1:35 AM 37.4 °F 33.8 °F 28.4 °F 70% 29.86 in 10.0 mi SW 4.6 mph - N/A   Clear
1:55 AM 37.4 °F 32.8 °F 28.4 °F 70% 29.86 in 10.0 mi SW 5.8 mph - N/A   Clear
2:15 AM 37.4 °F 32.8 °F 28.4 °F 70% 29.86 in 7.0 mi SSW 5.8 mph - N/A   Clear
2:35 AM 35.6 °F 29.9 °F 26.6 °F 70% 29.86 in 10.0 mi SSW 6.9 mph - N/A   Clear
2:55 AM 37.4 °F 32.8 °F 26.6 °F 65% 29.86 in 10.0 mi SW 5.8 mph - N/A   Clear
3:15 AM 37.4 °F 32.1 °F 26.6 °F 65% 29.86 in 10.0 mi SSW 6.9 mph - N/A   Clear
3:35 AM 35.6 °F 29.9 °F 26.6 °F 70% 29.86 in 10.0 mi South 6.9 mph - N/A   Clear
3:55 AM 35.6 °F 30.7 °F 26.6 °F 70% 29.85 in 10.0 mi South 5.8 mph - N/A   Clear
4:15 AM 35.6 °F 30.7 °F 26.6 °F 70% 29.85 in 10.0 mi South 5.8 mph - N/A   Clear
4:35 AM 35.6 °F 30.7 °F 26.6 °F 70% 29.84 in 10.0 mi South 5.8 mph - N/A   Clear
4:55 AM 35.6 °F 29.2 °F 28.4 °F 75% 29.85 in 10.0 mi South 8.1 mph - N/A   Clear
5:15 AM 33.8 °F 27.0 °F 28.4 °F 81% 29.85 in 10.0 mi SSW 8.1 mph - N/A   Clear
5:35 AM 33.8 °F 27.7 °F 28.4 °F 81% 29.84 in 10.0 mi SSW 6.9 mph - N/A   Clear
5:55 AM 35.6 °F 29.9 °F 28.4 °F 75% 29.84 in 10.0 mi SSW 6.9 mph - N/A   Clear
6:15 AM 35.6 °F 29.9 °F 28.4 °F 75% 29.84 in 10.0 mi SSW 6.9 mph - N/A   Clear
6:35 AM 33.8 °F 28.6 °F 26.6 °F 75% 29.84 in 10.0 mi SSW 5.8 mph - N/A   Clear
6:55 AM 33.8 °F 27.0 °F 26.6 °F 75% 29.84 in 10.0 mi SSW 8.1 mph - N/A   Clear
7:15 AM 35.6 °F 29.9 °F 28.4 °F 75% 29.84 in 10.0 mi SSW 6.9 mph - N/A   Clear
7:35 AM 37.4 °F 31.4 °F 28.4 °F 70% 29.85 in 7.0 mi SSW 8.1 mph - N/A   Clear
7:55 AM 37.4 °F 30.8 °F 28.4 °F 70% 29.85 in 10.0 mi SSW 9.2 mph - N/A   Clear
8:15 AM 39.2 °F 33.6 °F 30.2 °F 70% 29.84 in 10.0 mi South 8.1 mph - N/A   Clear
8:35 AM 39.2 °F 33.6 °F 30.2 °F 70% 29.83 in 10.0 mi SSW 8.1 mph - N/A   Clear
8:55 AM 42.8 °F 37.5 °F 30.2 °F 61% 29.84 in 10.0 mi SSW 9.2 mph - N/A   Clear
9:15 AM 44.6 °F 39.7 °F 30.2 °F 57% 29.84 in 10.0 mi SW 9.2 mph - N/A   Clear
9:35 AM 46.4 °F 41.9 °F 30.2 °F 53% 29.84 in 10.0 mi SSW 9.2 mph - N/A   Clear
9:55 AM 48.2 °F - 30.2 °F 50% 29.83 in 10.0 mi SSW 9.2 mph - N/A   Clear
10:15 AM 50.0 °F - 28.4 °F 43% 29.83 in 10.0 mi SW 9.2 mph 16.1 mph N/A   Clear
10:35 AM 51.8 °F - 28.4 °F 41% 29.82 in 10.0 mi SW 10.4 mph - N/A   Clear
10:55 AM 53.6 °F - 28.4 °F 38% 29.82 in 10.0 mi SW 8.1 mph - N/A   Clear
11:15 AM 55.4 °F - 28.4 °F 36% 29.80 in 10.0 mi SW 10.4 mph - N/A   Clear
11:35 AM 57.2 °F - 28.4 °F 33% 29.79 in 10.0 mi SW 9.2 mph 18.4 mph N/A   Clear
11:55 AM 57.2 °F - 26.6 °F 31% 29.77 in 10.0 mi WSW 12.7 mph 17.3 mph N/A   Clear
12:15 PM 57.2 °F - 26.6 °F 31% 29.76 in 10.0 mi SW 11.5 mph 19.6 mph N/A   Clear
12:35 PM 60.8 °F - 28.4 °F 29% 29.75 in 10.0 mi SW 11.5 mph - N/A   Clear
12:55 PM 60.8 °F - 28.4 °F 29% 29.74 in 10.0 mi SW 13.8 mph 20.7 mph N/A   Clear
1:15 PM 62.6 °F - 28.4 °F 27% 29.73 in 10.0 mi SW 13.8 mph 20.7 mph N/A   Clear
1:35 PM 62.6 °F - 28.4 °F 27% 29.72 in 10.0 mi SW 16.1 mph 20.7 mph N/A   Clear
1:55 PM 62.6 °F - 28.4 °F 27% 29.72 in 10.0 mi SW 12.7 mph 20.7 mph N/A   Clear
2:15 PM 64.4 °F - 28.4 °F 26% 29.72 in 10.0 mi SW 10.4 mph - N/A   Clear
2:35 PM 64.4 °F - 28.4 °F 26% 29.71 in 10.0 mi SW 11.5 mph 20.7 mph N/A   Clear
2:55 PM 64.4 °F - 28.4 °F 26% 29.71 in 10.0 mi SW 12.7 mph 21.9 mph N/A   Clear
3:15 PM 64.4 °F - 28.4 °F 26% 29.72 in 10.0 mi SW 9.2 mph 17.3 mph N/A   Clear
3:35 PM 62.6 °F - 28.4 °F 27% 29.73 in 10.0 mi SW 13.8 mph 18.4 mph N/A   Clear
3:55 PM 62.6 °F - 28.4 °F 27% 29.74 in 10.0 mi WSW 13.8 mph 21.9 mph N/A   Clear
4:15 PM 62.6 °F - 28.4 °F 27% 29.74 in 10.0 mi SW 13.8 mph 23.0 mph N/A   Clear
4:35 PM 62.6 °F - 28.4 °F 27% 29.75 in 10.0 mi SW 12.7 mph 17.3 mph N/A   Clear
4:55 PM 60.8 °F - 30.2 °F 31% 29.76 in 10.0 mi SW 8.1 mph - N/A   Clear
5:15 PM 57.2 °F - 30.2 °F 36% 29.77 in 10.0 mi SSW 6.9 mph - N/A   Clear
5:35 PM 57.2 °F - 30.2 °F 36% 29.78 in 10.0 mi SSW 3.5 mph - N/A   Clear
5:55 PM 55.4 °F - 30.2 °F 38% 29.79 in 10.0 mi SSW 4.6 mph - N/A   Clear
6:15 PM 53.6 °F - 28.4 °F 38% 29.80 in 10.0 mi South 5.8 mph - N/A   Clear
6:35 PM 53.6 °F - 30.2 °F 41% 29.81 in 10.0 mi SSW 5.8 mph - N/A   Clear
6:55 PM 51.8 °F - 30.2 °F 44% 29.81 in 10.0 mi South 5.8 mph - N/A   Clear
7:15 PM 51.8 °F - 30.2 °F 44% 29.82 in 10.0 mi SSW 5.8 mph - N/A   Clear
7:35 PM 51.8 °F - 30.2 °F 44% 29.82 in 10.0 mi SSW 5.8 mph - N/A   Clear
7:55 PM 48.2 °F - 30.2 °F 50% 29.83 in 10.0 mi SSW 5.8 mph - N/A   Clear
8:15 PM 48.2 °F - 30.2 °F 50% 29.83 in 10.0 mi SSW 3.5 mph - N/A   Clear
8:35 PM 48.2 °F - 30.2 °F 50% 29.84 in 10.0 mi South 5.8 mph - N/A   Clear
8:55 PM 48.2 °F - 30.2 °F 50% 29.84 in 10.0 mi SSW 4.6 mph - N/A   Clear
9:15 PM 48.2 °F - 30.2 °F 50% 29.85 in 10.0 mi South 5.8 mph - N/A   Clear
9:35 PM 44.6 °F 41.4 °F 30.2 °F 57% 29.85 in 10.0 mi SSW 5.8 mph - N/A   Clear
9:55 PM 46.4 °F 43.5 °F 30.2 °F 53% 29.85 in 10.0 mi SSW 5.8 mph - N/A   Clear
10:15 PM 46.4 °F 43.5 °F 30.2 °F 53% 29.86 in 10.0 mi SW 5.8 mph - N/A   Clear
10:35 PM 44.6 °F 42.2 °F 30.2 °F 57% 29.86 in 10.0 mi SSW 4.6 mph - N/A   Clear
10:55 PM 44.6 °F - 30.2 °F 57% 29.86 in 10.0 mi Calm Calm - N/A   Clear
11:15 PM 41.0 °F - 30.2 °F 65% 29.85 in 10.0 mi Calm Calm - N/A   Clear
11:35 PM 41.0 °F - 32.0 °F 70% 29.85 in 10.0 mi Calm Calm - N/A   Clear
11:55 PM 39.2 °F - 32.0 °F 75% 29.85 in 10.0 mi Calm Calm - N/A   Clear